Wynyard / W.B. Needham Field

Jump to: basic info | weather | frequencies | runways | comments

Related pages: nearby airports | nearby navaids | notams | map

Basic information (top)

Codes: CYYO
Location: lon 51.809888, lat -104.169788, elev 1,740 ft / 530 m msl
Status: small_airport
Scheduled airline service: no
Links: Wikipedia Mobile

Weather (top)

Current conditions for Yorkton Municipal Airport 72nm (133km) ESE (rec'd 2015/04/01 11:53Z):

CYQV 011153Z AUTO 10004KT 080V150 9SM -RA BKN070 OVC085 04/02 A2941 RMK PRESFR SLP971

Airport forecast for Yorkton Municipal Airport 72nm (133km) ESE (rec'd 2015/04/01 12:42Z):

TAF CYQV 011139Z 0112/0124 VRB03KT P6SM SCT060 OVC100 
      TEMPO 0112/0116 P6SM -SHRA OVC060 
     FM011600 27012KT P6SM SCT015 OVC030 
      TEMPO 0116/0120 OVC015 
     FM012000 27020G30KT P6SM SCT020 BKN040 
      RMK FCST BASED ON AUTO OBS. NXT FCST BY 011800Z

Frequencies (top)

Verify before use: may be inaccurate or out of date.

ATF: 123.2 MHz (ATF)

Runways (top)

09/27: 3,000 x 75 ft (914 x 23 m) — paved — lighted

Latest comments (top)

Wynyard Airport renamed W.B. Needham Field: The Wynyard Airport was renamed "W.B. ... [read]

More... (top)

See also NOTAMs and nearby airports and navaids, or visit the Wynyard / W.B. Needham Field page at the main OurAirports website..